sat.trackr.live / text

‹ back to catalog

STARLINK-1404

NORAD 45686 · 2020-035AF

PAYLOAD ACTIVE UNKNOWN

§ Identity

Operator
Country
US
Launch date
2020-06-04
Launch site
AFETR
Launch vehicle
Mass (kg)
RCS (m²)

Purposes: comms

External: N2YO · Heavens-Above · Gunter

§ Orbital elements

Epoch: 2026-09-12T08:17:21.780672Z

Period
92.61 min
Inclination
53.1507°
Eccentricity
0.0004566
Mean motion
15.54889847 rev/d
Perigee alt
399.4 km
Apogee alt
405.6 km
Semi-major
6,780.6 km
B*
8.2713e-4
RAAN
243.9120°
Arg perigee
69.8594°
Mean anomaly
290.2908°
Rev number
34,781

§ Raw data

STARLINK-14041 45686U 20035AF  26255.34539098  .00056157  00000+0  82713-3 0  99972 45686  53.1507 243.9120 0004566  69.8594 290.2908 15.54889847347817

JSON: /api/v1/satellites/45686 · /tle

For live sub-satellite position, see the globe view (requires WebGL).

§ Visibility from observer

Set your observer location to see the next 7 days of passes ≥ 10°. The values pass through the URL so the page stays shareable.

No JS? Fill the form by hand. The geolocation button needs JavaScript.